HTR127 KORF-LPPI

Flight info

Callsign HTR127
Flight time 4h 35m
Altitude 35000
Route ORF AR9 ZIBUT/M079F350 DCT TILED DCT DRYED DCT 40N059W/M079F370 40N052W 40N045W 40N038W DCT FRS DCT BUNUB
Aircraft A319/M-SDE2E3FGILORWXYZ/HB1

Departure

Time 2026-05-04 14:14
Airport Norfolk International Airport (KORF)

Arrival

Time 2026-05-04 18:49
Airport Pico Airport (LPPI)
Time Latitude Longitude Altitude Speed Heading
2026-05-04 13:53 36.89241 -76.20871 3 ft 0 kts 178°
2026-05-04 14:04 36.89258 -76.20872 4 ft 3 kts 188°
2026-05-04 14:04 36.89276 -76.20865 3 ft 3 kts 219°
2026-05-04 14:05 36.89309 -76.20847 4 ft 3 kts 156°
2026-05-04 14:05 36.89313 -76.20846 5 ft 2 kts 129°
2026-05-04 14:05 36.89312 -76.20844 4 ft 0 kts 128°
2026-05-04 14:08 36.89301 -76.20826 4 ft 5 kts 128°
2026-05-04 14:08 36.89275 -76.20785 3 ft 8 kts 128°
2026-05-04 14:08 36.89239 -76.20726 3 ft 9 kts 128°
2026-05-04 14:09 36.89141 -76.20573 3 ft 13 kts 128°
2026-05-04 14:09 36.89144 -76.20493 5 ft 10 kts 32°
2026-05-04 14:10 36.89275 -76.20381 4 ft 16 kts 38°
2026-05-04 14:10 36.89367 -76.20294 5 ft 17 kts 37°
2026-05-04 14:10 36.89462 -76.20204 4 ft 17 kts 38°
2026-05-04 14:10 36.89558 -76.20110 4 ft 18 kts 38°
2026-05-04 14:11 36.89657 -76.20015 3 ft 18 kts 38°
2026-05-04 14:11 36.89860 -76.19819 3 ft 19 kts 38°
2026-05-04 14:11 36.89964 -76.19718 3 ft 19 kts 38°
2026-05-04 14:12 36.90070 -76.19612 3 ft 20 kts 38°
2026-05-04 14:12 36.90187 -76.19521 3 ft 20 kts 27°
2026-05-04 14:12 36.90421 -76.19324 3 ft 21 kts 38°
2026-05-04 14:13 36.90533 -76.19214 2 ft 21 kts 38°
2026-05-04 14:13 36.90611 -76.19085 2 ft 19 kts 110°
2026-05-04 14:13 36.90541 -76.18973 0 ft 13 kts 143°
2026-05-04 14:13 36.90447 -76.19034 1 ft 37 kts 217°
2026-05-04 14:14 36.90063 -76.19405 4 ft 101 kts 218°
2026-05-04 14:14 36.88532 -76.20892 707 ft 149 kts 218°
2026-05-04 14:14 36.87681 -76.21706 1275 ft 159 kts 219°
2026-05-04 14:15 36.85586 -76.22745 2616 ft 172 kts 184°
2026-05-04 14:15 36.83485 -76.20691 3141 ft 238 kts 112°
2026-05-04 14:16 36.83520 -76.16122 3917 ft 284 kts 86°
2026-05-04 14:16 36.83730 -76.13639 4723 ft 290 kts 84°
2026-05-04 14:17 36.84207 -76.08596 6488 ft 296 kts 84°
2026-05-04 14:17 36.84450 -76.06029 7269 ft 300 kts 84°
2026-05-04 14:17 36.84936 -76.00770 8783 ft 310 kts 83°
2026-05-04 14:18 36.85178 -75.98079 9535 ft 315 kts 83°
2026-05-04 14:18 36.85682 -75.92445 10388 ft 347 kts 82°
2026-05-04 14:19 36.86245 -75.86076 10653 ft 390 kts 83°
2026-05-04 14:19 36.86546 -75.82632 10881 ft 406 kts 83°
2026-05-04 14:19 36.86856 -75.79099 11360 ft 412 kts 82°
2026-05-04 14:19 36.87170 -75.75528 11919 ft 416 kts 82°
2026-05-04 14:20 36.87487 -75.71911 12466 ft 421 kts 82°
2026-05-04 14:20 36.87805 -75.68264 13023 ft 425 kts 82°
2026-05-04 14:20 36.88124 -75.64580 13582 ft 429 kts 82°
2026-05-04 14:21 36.88766 -75.57103 14603 ft 437 kts 82°
2026-05-04 14:21 36.89089 -75.53312 15097 ft 441 kts 82°
2026-05-04 14:21 36.89413 -75.49487 15592 ft 445 kts 82°
2026-05-04 14:21 36.89739 -75.45628 16086 ft 449 kts 82°
2026-05-04 14:22 36.90066 -75.41731 16580 ft 453 kts 82°
2026-05-04 14:22 36.90396 -75.37804 17061 ft 456 kts 83°
2026-05-04 14:22 36.90726 -75.33844 17539 ft 460 kts 82°
2026-05-04 14:22 36.91060 -75.29850 18005 ft 464 kts 82°
2026-05-04 14:23 36.91731 -75.21774 18835 ft 471 kts 83°
2026-05-04 14:23 36.91982 -75.17678 19227 ft 475 kts 86°
2026-05-04 14:23 36.92107 -75.13536 19615 ft 478 kts 88°
2026-05-04 14:24 36.92143 -75.09375 20003 ft 482 kts 89°
2026-05-04 14:24 36.92135 -75.05172 20375 ft 485 kts 90°
2026-05-04 14:24 36.92125 -75.00946 20713 ft 489 kts 90°
2026-05-04 14:24 36.92134 -74.96687 21056 ft 492 kts 89°
2026-05-04 14:25 36.92173 -74.92399 21401 ft 495 kts 89°
2026-05-04 14:25 36.92314 -74.83749 22065 ft 501 kts 88°
2026-05-04 14:25 36.92398 -74.79385 22377 ft 504 kts 89°
2026-05-04 14:26 36.92477 -74.74995 22694 ft 506 kts 89°
2026-05-04 14:26 36.92544 -74.70582 23012 ft 509 kts 89°
2026-05-04 14:26 36.92600 -74.66150 23312 ft 512 kts 89°
2026-05-04 14:26 36.92648 -74.61688 23615 ft 515 kts 89°
2026-05-04 14:27 36.92692 -74.57207 23879 ft 517 kts 89°
2026-05-04 14:27 36.92737 -74.52708 24145 ft 519 kts 89°
2026-05-04 14:27 36.92782 -74.48189 24450 ft 521 kts 89°
2026-05-04 14:27 36.92826 -74.43667 24756 ft 521 kts 89°
2026-05-04 14:28 36.92874 -74.39138 25038 ft 522 kts 89°
2026-05-04 14:28 36.92937 -74.34595 25305 ft 523 kts 89°
2026-05-04 14:28 36.93008 -74.30037 25535 ft 526 kts 89°
2026-05-04 14:28 36.93085 -74.25462 25782 ft 527 kts 89°
2026-05-04 14:29 36.93230 -74.16273 26284 ft 530 kts 89°
2026-05-04 14:29 36.93347 -74.07059 26956 ft 529 kts 89°
2026-05-04 14:30 36.93397 -74.02469 27305 ft 528 kts 89°
2026-05-04 14:30 36.93449 -73.97879 27652 ft 527 kts 90°
2026-05-04 14:30 36.93552 -73.88736 28407 ft 525 kts 90°
2026-05-04 14:31 36.93603 -73.84178 28790 ft 524 kts 90°
2026-05-04 14:31 36.93698 -73.75086 29565 ft 522 kts 90°
2026-05-04 14:32 36.93769 -73.66035 30341 ft 520 kts 91°
2026-05-04 14:32 36.93780 -73.61521 30654 ft 519 kts 92°
2026-05-04 14:32 36.93779 -73.57011 30956 ft 519 kts 92°
2026-05-04 14:32 36.93771 -73.52513 31248 ft 519 kts 93°
2026-05-04 14:33 36.93762 -73.47999 31548 ft 518 kts 93°
2026-05-04 14:33 36.93761 -73.43495 31846 ft 518 kts 92°
2026-05-04 14:33 36.93771 -73.38992 32150 ft 518 kts 92°
2026-05-04 14:33 36.93784 -73.34487 32457 ft 518 kts 92°
2026-05-04 14:34 36.93794 -73.31443 32665 ft 518 kts 92°
2026-05-04 14:34 36.93810 -73.26946 32945 ft 518 kts 94°
2026-05-04 14:34 36.93823 -73.22437 33233 ft 518 kts 94°
2026-05-04 14:34 36.93832 -73.17932 33533 ft 518 kts 94°
2026-05-04 14:35 36.93839 -73.13438 33843 ft 518 kts 94°
2026-05-04 14:35 36.93844 -73.08936 34150 ft 517 kts 94°
2026-05-04 14:35 36.93848 -73.04442 34408 ft 517 kts 94°
2026-05-04 14:35 36.93851 -72.99949 34663 ft 517 kts 94°
2026-05-04 14:36 36.93857 -72.95454 34915 ft 517 kts 94°
2026-05-04 14:36 36.93862 -72.90959 35104 ft 518 kts 95°
2026-05-04 14:36 36.93864 -72.86457 35167 ft 519 kts 95°
2026-05-04 14:37 36.93856 -72.77434 35163 ft 519 kts 95°
2026-05-04 14:37 36.93848 -72.68400 35163 ft 520 kts 93°
2026-05-04 14:38 36.94592 -72.59364 35145 ft 524 kts 86°
2026-05-04 14:38 36.95540 -72.50311 35168 ft 525 kts 86°
2026-05-04 14:39 36.96475 -72.41266 35167 ft 525 kts 86°
2026-05-04 14:39 36.97396 -72.32218 35164 ft 525 kts 86°
2026-05-04 14:40 36.98763 -72.18641 35148 ft 524 kts 87°
2026-05-04 14:40 36.99672 -72.09602 35161 ft 524 kts 87°
2026-05-04 14:41 37.00567 -72.00563 35162 ft 523 kts 87°
2026-05-04 14:42 37.02344 -71.82502 35153 ft 523 kts 87°
2026-05-04 14:42 37.03224 -71.73469 35157 ft 523 kts 88°
2026-05-04 14:43 37.04091 -71.64424 35159 ft 523 kts 88°
2026-05-04 14:43 37.04948 -71.55385 35148 ft 523 kts 88°
2026-05-04 14:44 37.05805 -71.46340 35150 ft 524 kts 88°
2026-05-04 14:44 37.06665 -71.37269 35156 ft 525 kts 88°
2026-05-04 14:45 37.07513 -71.28192 35160 ft 525 kts 88°
2026-05-04 14:45 37.08343 -71.19108 35165 ft 525 kts 88°
2026-05-04 14:46 37.09170 -71.10023 35167 ft 525 kts 88°
2026-05-04 14:46 37.09998 -71.00936 35181 ft 525 kts 88°
2026-05-04 14:47 37.10818 -70.91844 35186 ft 525 kts 88°
2026-05-04 14:47 37.11630 -70.82750 35155 ft 525 kts 89°
2026-05-04 14:48 37.12433 -70.73647 35162 ft 526 kts 89°
2026-05-04 14:48 37.13231 -70.64535 35162 ft 527 kts 89°
2026-05-04 14:49 37.14022 -70.55406 35164 ft 527 kts 89°
2026-05-04 14:49 37.14808 -70.46264 35160 ft 530 kts 89°
2026-05-04 14:50 37.15585 -70.37073 35165 ft 530 kts 89°
2026-05-04 14:50 37.16365 -70.27875 35169 ft 531 kts 89°
2026-05-04 14:51 37.17139 -70.18672 35146 ft 531 kts 90°
2026-05-04 14:51 37.17893 -70.09448 35153 ft 532 kts 90°
2026-05-04 14:52 37.18650 -70.00203 35187 ft 533 kts 90°
2026-05-04 14:52 37.19408 -69.90956 35183 ft 533 kts 90°
2026-05-04 14:53 37.20162 -69.81695 35149 ft 534 kts 90°
2026-05-04 14:53 37.20907 -69.72403 35168 ft 536 kts 90°
2026-05-04 14:54 37.21642 -69.63077 35166 ft 537 kts 90°
2026-05-04 14:54 37.22371 -69.53748 35165 ft 537 kts 90°
2026-05-04 14:55 37.23093 -69.44400 35162 ft 540 kts 91°
2026-05-04 14:55 37.23805 -69.35003 35162 ft 541 kts 91°
2026-05-04 14:56 37.24517 -69.25603 35167 ft 542 kts 91°
2026-05-04 14:56 37.25231 -69.16187 35182 ft 542 kts 91°
2026-05-04 14:57 37.25944 -69.06763 35170 ft 544 kts 88°
2026-05-04 14:57 37.27861 -68.97493 35169 ft 555 kts 70°
2026-05-04 14:58 37.31699 -68.89061 35170 ft 558 kts 51°
2026-05-04 14:58 37.36454 -68.81321 35171 ft 562 kts 51°
2026-05-04 14:59 37.41218 -68.73485 35216 ft 565 kts 52°
2026-05-04 15:00 37.48350 -68.61712 35201 ft 563 kts 52°
2026-05-04 15:00 37.53102 -68.53866 35193 ft 563 kts 52°
2026-05-04 15:01 37.60232 -68.42071 35181 ft 565 kts 52°
2026-05-04 15:01 37.64986 -68.34183 35178 ft 564 kts 52°
2026-05-04 15:02 37.69729 -68.26290 35171 ft 564 kts 52°
2026-05-04 15:02 37.74468 -68.18389 35179 ft 564 kts 52°
2026-05-04 15:03 37.79205 -68.10476 35159 ft 565 kts 52°
2026-05-04 15:03 37.83948 -68.02545 35157 ft 565 kts 52°
2026-05-04 15:04 37.88686 -67.94594 35162 ft 566 kts 52°
2026-05-04 15:04 37.93405 -67.86620 35202 ft 565 kts 52°
2026-05-04 15:05 37.98116 -67.78658 35193 ft 564 kts 52°
2026-05-04 15:05 38.02823 -67.70714 35189 ft 563 kts 52°
2026-05-04 15:06 38.07513 -67.62756 35215 ft 563 kts 52°
2026-05-04 15:07 38.14517 -67.50819 35161 ft 561 kts 52°
2026-05-04 15:07 38.19190 -67.42862 35154 ft 562 kts 52°
2026-05-04 15:08 38.23870 -67.34880 35189 ft 563 kts 52°
2026-05-04 15:08 38.28562 -67.26823 35187 ft 562 kts 52°
2026-05-04 15:09 38.33189 -67.18878 35143 ft 562 kts 52°
2026-05-04 15:09 38.37875 -67.10804 35140 ft 563 kts 52°
2026-05-04 15:10 38.44075 -67.00087 35141 ft 565 kts 52°
2026-05-04 15:11 38.51064 -66.87967 35120 ft 566 kts 52°
2026-05-04 15:11 38.55732 -66.79842 35187 ft 569 kts 52°
2026-05-04 15:12 38.60402 -66.71682 35180 ft 568 kts 54°
2026-05-04 15:12 38.63990 -66.62732 35170 ft 565 kts 73°
2026-05-04 15:13 38.66137 -66.53102 35127 ft 563 kts 78°
2026-05-04 15:13 38.68211 -66.43416 35179 ft 565 kts 78°
2026-05-04 15:14 38.70288 -66.33719 35169 ft 565 kts 78°
2026-05-04 15:14 38.72346 -66.24012 35125 ft 565 kts 78°
2026-05-04 15:15 38.74389 -66.14291 35125 ft 566 kts 78°
2026-05-04 15:15 38.76423 -66.04536 35128 ft 567 kts 78°
2026-05-04 15:16 38.79477 -65.89864 35136 ft 568 kts 78°
2026-05-04 15:17 38.82521 -65.75169 35136 ft 569 kts 78°
2026-05-04 15:17 38.85555 -65.60445 35104 ft 569 kts 78°
2026-05-04 15:18 38.87564 -65.50608 35108 ft 571 kts 79°
2026-05-04 15:19 38.90560 -65.35807 35157 ft 571 kts 79°
2026-05-04 15:19 38.93546 -65.20982 35125 ft 572 kts 79°
2026-05-04 15:20 38.95529 -65.11088 35124 ft 573 kts 79°
2026-05-04 15:20 38.97510 -65.01174 35127 ft 573 kts 79°
2026-05-04 15:21 38.99485 -64.91233 35164 ft 575 kts 79°
2026-05-04 15:22 39.02430 -64.76284 35150 ft 575 kts 79°
2026-05-04 15:22 39.05365 -64.61327 35147 ft 575 kts 79°
2026-05-04 15:23 39.07313 -64.51353 35145 ft 574 kts 79°
2026-05-04 15:23 39.09242 -64.41381 35170 ft 574 kts 79°
2026-05-04 15:24 39.13061 -64.21434 35128 ft 574 kts 79°
2026-05-04 15:25 39.14978 -64.11441 35126 ft 575 kts 79°
2026-05-04 15:26 39.17835 -63.96433 35129 ft 575 kts 79°
2026-05-04 15:26 39.20659 -63.81380 35134 ft 576 kts 79°
2026-05-04 15:27 39.23470 -63.66315 35114 ft 576 kts 79°
2026-05-04 15:28 39.26272 -63.51222 35113 ft 577 kts 79°
2026-05-04 15:29 39.29049 -63.36102 35111 ft 577 kts 80°
2026-05-04 15:30 39.35472 -63.00726 35136 ft 579 kts 80°
2026-05-04 15:31 39.38194 -62.85519 35131 ft 579 kts 80°
2026-05-04 15:32 39.42703 -62.60131 35104 ft 580 kts 80°
2026-05-04 15:34 39.47150 -62.34647 35091 ft 582 kts 80°
2026-05-04 15:34 39.49806 -62.19312 35093 ft 583 kts 81°
2026-05-04 15:35 39.52443 -62.03872 35159 ft 586 kts 81°
2026-05-04 15:36 39.55073 -61.88445 35092 ft 584 kts 81°
2026-05-04 15:36 39.56821 -61.78089 35094 ft 585 kts 81°
2026-05-04 15:37 39.58538 -61.67848 35095 ft 585 kts 81°
2026-05-04 15:37 39.60270 -61.57460 35146 ft 585 kts 81°
2026-05-04 15:38 39.61972 -61.47154 35130 ft 584 kts 81°
2026-05-04 15:38 39.63653 -61.36927 35124 ft 583 kts 81°
2026-05-04 15:39 39.65357 -61.26574 35075 ft 583 kts 81°
2026-05-04 15:40 39.67886 -61.11106 35136 ft 584 kts 81°
2026-05-04 15:40 39.69552 -61.00784 35075 ft 584 kts 81°
2026-05-04 15:41 39.71208 -60.90454 35087 ft 585 kts 81°
2026-05-04 15:41 39.72861 -60.80122 35081 ft 585 kts 81°
2026-05-04 15:42 39.74505 -60.69762 35123 ft 587 kts 81°
2026-05-04 15:42 39.76139 -60.59357 35115 ft 587 kts 81°
2026-05-04 15:43 39.77764 -60.48972 35110 ft 586 kts 81°
2026-05-04 15:43 39.79382 -60.38579 35068 ft 586 kts 82°
2026-05-04 15:44 39.80994 -60.28183 35073 ft 587 kts 82°
2026-05-04 15:44 39.82594 -60.17778 35120 ft 586 kts 82°
2026-05-04 15:45 39.84174 -60.07377 35070 ft 586 kts 82°
2026-05-04 15:45 39.85751 -59.96970 35075 ft 587 kts 82°
2026-05-04 15:46 39.87330 -59.86551 35040 ft 587 kts 82°
2026-05-04 15:46 39.88901 -59.76120 35093 ft 587 kts 82°
2026-05-04 15:47 39.90447 -59.65685 35089 ft 587 kts 82°
2026-05-04 15:47 39.91985 -59.55246 35060 ft 587 kts 82°
2026-05-04 15:48 39.93523 -59.44804 35053 ft 588 kts 82°
2026-05-04 15:48 39.95564 -59.30865 35066 ft 588 kts 82°
2026-05-04 15:49 39.97085 -59.20385 35073 ft 588 kts 82°
2026-05-04 15:49 39.98598 -59.09896 35078 ft 589 kts 82°
2026-05-04 15:50 39.99965 -58.99375 35038 ft 585 kts 89°
2026-05-04 15:50 40.00330 -58.88822 35100 ft 583 kts 93°
2026-05-04 15:51 40.00632 -58.78249 35103 ft 582 kts 93°
2026-05-04 15:51 40.00931 -58.67705 35098 ft 582 kts 93°
2026-05-04 15:52 40.01219 -58.57163 35094 ft 581 kts 93°
2026-05-04 15:52 40.01491 -58.46629 35053 ft 581 kts 94°
2026-05-04 15:53 40.01754 -58.36098 35057 ft 581 kts 94°
2026-05-04 15:53 40.02007 -58.25556 35105 ft 581 kts 94°
2026-05-04 15:54 40.02252 -58.15029 35068 ft 580 kts 94°
2026-05-04 15:54 40.02486 -58.04508 35066 ft 580 kts 94°
2026-05-04 15:55 40.02712 -57.93985 35071 ft 580 kts 94°
2026-05-04 15:55 40.02936 -57.83423 35077 ft 585 kts 94°
2026-05-04 15:56 40.03139 -57.72813 35070 ft 585 kts 94°
2026-05-04 15:56 40.03339 -57.62205 35051 ft 586 kts 94°
2026-05-04 15:57 40.03531 -57.51536 35067 ft 589 kts 95°
2026-05-04 15:57 40.03708 -57.40852 35064 ft 589 kts 95°
2026-05-04 15:58 40.03868 -57.30137 35073 ft 593 kts 95°
2026-05-04 15:58 40.04035 -57.19372 35076 ft 594 kts 95°
2026-05-04 15:59 40.04194 -57.08616 35115 ft 592 kts 95°
2026-05-04 15:59 40.04336 -56.97893 35066 ft 591 kts 95°
2026-05-04 16:00 40.04469 -56.87178 35065 ft 591 kts 95°
2026-05-04 16:00 40.04586 -56.76454 35071 ft 591 kts 95°
2026-05-04 16:01 40.04694 -56.65725 35060 ft 592 kts 95°
2026-05-04 16:01 40.04791 -56.54932 35099 ft 595 kts 95°
2026-05-04 16:02 40.04889 -56.44144 35098 ft 594 kts 95°
2026-05-04 16:03 40.05019 -56.27982 35072 ft 593 kts 96°
2026-05-04 16:03 40.05082 -56.17219 35071 ft 593 kts 96°
2026-05-04 16:04 40.05135 -56.06447 35071 ft 593 kts 96°
2026-05-04 16:04 40.05201 -55.90303 35055 ft 592 kts 96°
2026-05-04 16:05 40.05238 -55.79544 35052 ft 593 kts 96°
2026-05-04 16:06 40.05262 -55.63395 35063 ft 594 kts 96°
2026-05-04 16:07 40.05265 -55.41824 35090 ft 594 kts 96°
2026-05-04 16:08 40.05231 -55.20310 35090 ft 592 kts 96°
2026-05-04 16:09 40.05133 -54.93414 35082 ft 594 kts 97°
2026-05-04 16:10 40.04999 -54.71896 35043 ft 592 kts 97°
2026-05-04 16:11 40.04845 -54.50427 35065 ft 591 kts 97°
2026-05-04 16:12 40.04530 -54.18285 35072 ft 589 kts 97°
2026-05-04 16:13 40.04258 -53.96848 35067 ft 589 kts 97°
2026-05-04 16:14 40.03965 -53.75580 35093 ft 585 kts 98°
2026-05-04 16:16 40.03539 -53.49091 35064 ft 583 kts 98°
2026-05-04 16:17 40.03046 -53.22737 35084 ft 580 kts 98°
2026-05-04 16:18 40.02619 -53.01742 35086 ft 577 kts 98°
2026-05-04 16:19 40.02040 -52.75632 35058 ft 574 kts 98°
2026-05-04 16:20 40.01398 -52.49752 35089 ft 570 kts 98°
2026-05-04 16:22 40.00702 -52.23991 35099 ft 566 kts 99°
2026-05-04 16:23 39.99921 -51.93271 35066 ft 567 kts 94°
2026-05-04 16:25 40.01164 -51.62417 35088 ft 566 kts 93°
2026-05-04 16:26 40.01925 -51.28321 35078 ft 563 kts 93°
2026-05-04 16:28 40.02533 -51.02847 35358 ft 561 kts 94°
2026-05-04 16:28 40.02845 -50.87563 35722 ft 562 kts 94°
2026-05-04 16:29 40.03241 -50.67199 36171 ft 559 kts 93°
2026-05-04 16:30 40.03519 -50.52000 36558 ft 559 kts 93°
2026-05-04 16:31 40.03685 -50.41852 36816 ft 559 kts 93°
2026-05-04 16:31 40.03926 -50.26643 37085 ft 557 kts 93°
2026-05-04 16:32 40.04154 -50.11546 37079 ft 554 kts 94°
2026-05-04 16:33 40.04409 -49.91406 37075 ft 555 kts 94°
2026-05-04 16:34 40.04578 -49.76348 37074 ft 554 kts 94°
2026-05-04 16:35 40.04868 -49.46233 37074 ft 553 kts 94°
2026-05-04 16:36 40.04987 -49.31198 37069 ft 552 kts 94°
2026-05-04 16:37 40.05084 -49.16172 37077 ft 552 kts 94°
2026-05-04 16:38 40.05180 -48.96127 37057 ft 552 kts 94°
2026-05-04 16:39 40.05247 -48.71098 37065 ft 551 kts 94°
2026-05-04 16:40 40.05274 -48.51095 37055 ft 551 kts 93°
2026-05-04 16:41 40.05240 -48.26067 37065 ft 550 kts 94°
2026-05-04 16:43 40.05171 -48.01142 37075 ft 548 kts 93°
2026-05-04 16:43 40.05095 -47.86281 37082 ft 548 kts 93°
2026-05-04 16:45 40.04893 -47.56467 37095 ft 544 kts 93°
2026-05-04 16:46 40.04665 -47.31888 37095 ft 541 kts 93°
2026-05-04 16:47 40.04456 -47.12281 37095 ft 540 kts 93°
2026-05-04 16:48 40.04206 -46.92674 37095 ft 540 kts 93°
2026-05-04 16:49 40.03922 -46.73108 37118 ft 538 kts 93°
2026-05-04 16:50 40.03614 -46.53580 37115 ft 538 kts 93°
2026-05-04 16:51 40.03354 -46.38932 37128 ft 537 kts 92°
2026-05-04 16:52 40.02988 -46.19495 37135 ft 535 kts 92°
2026-05-04 16:53 40.02693 -46.04917 37123 ft 536 kts 92°
2026-05-04 16:54 40.02259 -45.85491 37146 ft 534 kts 92°
2026-05-04 16:55 40.01570 -45.56415 37130 ft 536 kts 92°
2026-05-04 16:56 40.00928 -45.32201 37168 ft 535 kts 92°
2026-05-04 16:57 40.00516 -45.17588 37160 ft 536 kts 92°
2026-05-04 16:58 39.99948 -44.98211 37185 ft 533 kts 91°
2026-05-04 17:00 40.00946 -44.69296 37156 ft 533 kts 85°
2026-05-04 17:01 40.01506 -44.45212 37202 ft 530 kts 86°
2026-05-04 17:02 40.01997 -44.26003 37196 ft 530 kts 86°
2026-05-04 17:03 40.02339 -44.11600 37201 ft 529 kts 86°
2026-05-04 17:03 40.02613 -43.98823 37205 ft 529 kts 86°
2026-05-04 17:04 40.03002 -43.79643 37200 ft 529 kts 86°
2026-05-04 17:05 40.03363 -43.60444 37211 ft 529 kts 85°
2026-05-04 17:06 40.03618 -43.46046 37218 ft 529 kts 86°
2026-05-04 17:07 40.03816 -43.33217 37221 ft 529 kts 86°
2026-05-04 17:07 40.03996 -43.22069 37227 ft 529 kts 85°
2026-05-04 17:08 40.04204 -43.07687 37237 ft 528 kts 85°
2026-05-04 17:09 40.04332 -42.98096 37227 ft 528 kts 85°
2026-05-04 17:09 40.04448 -42.88517 37229 ft 528 kts 85°
2026-05-04 17:10 40.04705 -42.64542 37231 ft 528 kts 86°
2026-05-04 17:11 40.04797 -42.54957 37232 ft 528 kts 86°
2026-05-04 17:12 40.04915 -42.40576 37231 ft 528 kts 86°
2026-05-04 17:13 40.05070 -42.16639 37239 ft 527 kts 85°
2026-05-04 17:14 40.05178 -41.97547 37245 ft 525 kts 85°
2026-05-04 17:15 40.05232 -41.83249 37245 ft 525 kts 86°
2026-05-04 17:16 40.05255 -41.64224 37257 ft 523 kts 85°
2026-05-04 17:17 40.05273 -41.45281 37253 ft 521 kts 85°
2026-05-04 17:18 40.05239 -41.26373 37268 ft 519 kts 85°
2026-05-04 17:19 40.05190 -41.07536 37273 ft 516 kts 85°
2026-05-04 17:20 40.05101 -40.88889 37281 ft 514 kts 86°
2026-05-04 17:20 40.05023 -40.74941 37282 ft 511 kts 85°
2026-05-04 17:21 40.04893 -40.56444 37276 ft 509 kts 86°
2026-05-04 17:22 40.04806 -40.47159 37293 ft 508 kts 86°
2026-05-04 17:23 40.04642 -40.28781 37289 ft 505 kts 86°
2026-05-04 17:24 40.04494 -40.15098 37294 ft 504 kts 86°
2026-05-04 17:25 40.04252 -39.96770 37298 ft 502 kts 86°
2026-05-04 17:26 40.03999 -39.78627 37297 ft 501 kts 86°
2026-05-04 17:27 40.03648 -39.55954 37302 ft 499 kts 87°
2026-05-04 17:28 40.03332 -39.37850 37299 ft 499 kts 87°
2026-05-04 17:29 40.02800 -39.10749 37309 ft 497 kts 87°
2026-05-04 17:31 40.02327 -38.88194 37314 ft 498 kts 87°
2026-05-04 17:32 40.01790 -38.65668 37325 ft 496 kts 87°
2026-05-04 17:33 40.01333 -38.47705 37323 ft 495 kts 87°
2026-05-04 17:34 40.00858 -38.29788 37323 ft 494 kts 86°
2026-05-04 17:35 40.00216 -38.07412 37322 ft 493 kts 87°
2026-05-04 17:36 39.99942 -37.98475 37329 ft 494 kts 88°
2026-05-04 17:36 39.99527 -37.89534 37343 ft 494 kts 89°
2026-05-04 17:37 39.99010 -37.80610 37338 ft 493 kts 89°
2026-05-04 17:37 39.98508 -37.71712 37334 ft 492 kts 89°
2026-05-04 17:38 39.98037 -37.62828 37332 ft 491 kts 88°
2026-05-04 17:38 39.97562 -37.53948 37331 ft 491 kts 89°
2026-05-04 17:39 39.96835 -37.40646 37358 ft 489 kts 88°
2026-05-04 17:39 39.96344 -37.31820 37357 ft 487 kts 89°
2026-05-04 17:40 39.95838 -37.23020 37353 ft 486 kts 89°
2026-05-04 17:40 39.95324 -37.14235 37353 ft 486 kts 89°
2026-05-04 17:41 39.94805 -37.05450 37366 ft 486 kts 89°
2026-05-04 17:41 39.94284 -36.96689 37366 ft 484 kts 89°
2026-05-04 17:42 39.93758 -36.87976 37364 ft 482 kts 89°
2026-05-04 17:42 39.93315 -36.80692 37362 ft 480 kts 89°
2026-05-04 17:43 39.92779 -36.72022 37359 ft 479 kts 89°
2026-05-04 17:43 39.92240 -36.63377 37369 ft 479 kts 89°
2026-05-04 17:44 39.91704 -36.54731 37372 ft 478 kts 88°
2026-05-04 17:44 39.91152 -36.46109 37363 ft 478 kts 88°
2026-05-04 17:45 39.90592 -36.37488 37358 ft 477 kts 88°
2026-05-04 17:45 39.90036 -36.28885 37351 ft 477 kts 88°
2026-05-04 17:46 39.89471 -36.20283 37373 ft 477 kts 88°
2026-05-04 17:46 39.88900 -36.11684 37366 ft 476 kts 88°
2026-05-04 17:47 39.88311 -36.03149 37368 ft 475 kts 88°
2026-05-04 17:47 39.87716 -35.94584 37363 ft 474 kts 88°
2026-05-04 17:48 39.87133 -35.85978 37360 ft 474 kts 88°
2026-05-04 17:48 39.86540 -35.77442 37359 ft 474 kts 88°
2026-05-04 17:49 39.85933 -35.68911 37373 ft 473 kts 87°
2026-05-04 17:49 39.85323 -35.60388 37373 ft 472 kts 87°
2026-05-04 17:50 39.84710 -35.51888 37367 ft 472 kts 87°
2026-05-04 17:50 39.84099 -35.43392 37359 ft 471 kts 87°
2026-05-04 17:51 39.83473 -35.34903 37352 ft 471 kts 87°
2026-05-04 17:51 39.82845 -35.26464 37374 ft 471 kts 86°
2026-05-04 17:52 39.82211 -35.17927 37384 ft 471 kts 86°
2026-05-04 17:52 39.81564 -35.09461 37378 ft 470 kts 86°
2026-05-04 17:53 39.80920 -35.01060 37372 ft 469 kts 86°
2026-05-04 17:53 39.80266 -34.92562 37371 ft 469 kts 86°
2026-05-04 17:54 39.79608 -34.84184 37394 ft 469 kts 86°
2026-05-04 17:54 39.78943 -34.75695 37381 ft 468 kts 86°
2026-05-04 17:55 39.78279 -34.67326 37377 ft 469 kts 86°
2026-05-04 17:55 39.77599 -34.58900 37368 ft 469 kts 86°
2026-05-04 17:56 39.76916 -34.50470 37362 ft 469 kts 86°
2026-05-04 17:56 39.76236 -34.42038 37388 ft 470 kts 86°
2026-05-04 17:57 39.75529 -34.33539 37373 ft 470 kts 86°
2026-05-04 17:57 39.74826 -34.25139 37381 ft 471 kts 86°
2026-05-04 17:58 39.74108 -34.16622 37371 ft 471 kts 86°
2026-05-04 17:58 39.73399 -34.08158 37370 ft 471 kts 86°
2026-05-04 17:59 39.72682 -33.99696 37370 ft 472 kts 87°
2026-05-04 18:00 39.71576 -33.86999 37366 ft 472 kts 87°
2026-05-04 18:00 39.70842 -33.78528 37360 ft 472 kts 87°
2026-05-04 18:01 39.70105 -33.70105 37363 ft 472 kts 87°
2026-05-04 18:01 39.69350 -33.61581 37385 ft 472 kts 87°
2026-05-04 18:02 39.68212 -33.48888 37378 ft 472 kts 87°
2026-05-04 18:02 39.67444 -33.40436 37409 ft 472 kts 87°
2026-05-04 18:03 39.66675 -33.31983 37398 ft 471 kts 87°
2026-05-04 18:03 39.65897 -33.23540 37389 ft 471 kts 87°
2026-05-04 18:04 39.65116 -33.15099 37406 ft 471 kts 87°
2026-05-04 18:05 39.63928 -33.02462 37391 ft 470 kts 87°
2026-05-04 18:05 39.63125 -32.94058 37389 ft 469 kts 87°
2026-05-04 18:06 39.61922 -32.81464 37404 ft 468 kts 87°
2026-05-04 18:06 39.61127 -32.73085 37393 ft 468 kts 87°
2026-05-04 18:07 39.60315 -32.64715 37387 ft 468 kts 88°
2026-05-04 18:07 39.59491 -32.56354 37406 ft 468 kts 88°
2026-05-04 18:08 39.58666 -32.47992 37401 ft 468 kts 88°
2026-05-04 18:08 39.57839 -32.39637 37383 ft 468 kts 88°
2026-05-04 18:09 39.56152 -32.22927 37388 ft 467 kts 89°
2026-05-04 18:10 39.55300 -32.14581 37381 ft 467 kts 89°
2026-05-04 18:10 39.54450 -32.06232 37404 ft 467 kts 90°
2026-05-04 18:11 39.53587 -31.97880 37380 ft 468 kts 90°
2026-05-04 18:11 39.52723 -31.89533 37377 ft 468 kts 90°
2026-05-04 18:12 39.51844 -31.81179 37377 ft 468 kts 90°
2026-05-04 18:12 39.50961 -31.72826 37392 ft 468 kts 91°
2026-05-04 18:13 39.50076 -31.64475 37384 ft 468 kts 91°
2026-05-04 18:14 39.48738 -31.51946 37395 ft 468 kts 91°
2026-05-04 18:14 39.47835 -31.43594 37386 ft 469 kts 92°
2026-05-04 18:15 39.46008 -31.26874 37384 ft 469 kts 92°
2026-05-04 18:16 39.44765 -31.18563 37382 ft 476 kts 103°
2026-05-04 18:16 39.42737 -31.10400 37379 ft 477 kts 103°
2026-05-04 18:17 39.39681 -30.98150 37374 ft 477 kts 103°
2026-05-04 18:18 39.36622 -30.85906 37384 ft 477 kts 103°
2026-05-04 18:18 39.34583 -30.77750 37383 ft 477 kts 104°
2026-05-04 18:19 39.31498 -30.65528 37389 ft 477 kts 104°
2026-05-04 18:19 39.29431 -30.57389 37384 ft 477 kts 104°
2026-05-04 18:20 39.27714 -30.50628 37381 ft 477 kts 104°
2026-05-04 18:20 39.25641 -30.42489 37379 ft 477 kts 104°
2026-05-04 18:21 39.23564 -30.34358 37387 ft 477 kts 105°
2026-05-04 18:21 39.21143 -30.24919 37382 ft 477 kts 105°
2026-05-04 18:22 39.19394 -30.18132 37372 ft 477 kts 105°
2026-05-04 18:22 39.17305 -30.10026 37380 ft 477 kts 105°
2026-05-04 18:23 39.15208 -30.01911 37374 ft 477 kts 106°
2026-05-04 18:23 39.13102 -29.93805 37366 ft 477 kts 106°
2026-05-04 18:24 39.10985 -29.85707 37365 ft 477 kts 106°
2026-05-04 18:24 39.08863 -29.77611 37373 ft 477 kts 106°
2026-05-04 18:25 39.06739 -29.69516 37369 ft 477 kts 107°
2026-05-04 18:25 39.04610 -29.61431 37284 ft 474 kts 107°
2026-05-04 18:26 39.03556 -29.57441 36471 ft 471 kts 107°
2026-05-04 18:26 39.02471 -29.53465 35496 ft 472 kts 112°
2026-05-04 18:26 39.00814 -29.49836 34578 ft 470 kts 130°
2026-05-04 18:26 38.98446 -29.47017 33821 ft 461 kts 148°
2026-05-04 18:27 38.95614 -29.45216 32993 ft 451 kts 165°
2026-05-04 18:27 38.92584 -29.44318 32121 ft 445 kts 171°
2026-05-04 18:27 38.89552 -29.43597 31271 ft 441 kts 172°
2026-05-04 18:27 38.86554 -29.42905 30468 ft 436 kts 172°
2026-05-04 18:28 38.83575 -29.42226 29573 ft 432 kts 172°
2026-05-04 18:28 38.80638 -29.41565 28727 ft 426 kts 172°
2026-05-04 18:28 38.77734 -29.40920 27919 ft 421 kts 172°
2026-05-04 18:28 38.74862 -29.40290 27153 ft 416 kts 172°
2026-05-04 18:29 38.72028 -29.39674 26396 ft 411 kts 172°
2026-05-04 18:29 38.69222 -29.39064 25658 ft 407 kts 172°
2026-05-04 18:29 38.66442 -29.38464 24941 ft 403 kts 172°
2026-05-04 18:29 38.63692 -29.37879 24238 ft 399 kts 172°
2026-05-04 18:30 38.58270 -29.36734 22670 ft 391 kts 171°
2026-05-04 18:30 38.55601 -29.36182 21886 ft 386 kts 172°
2026-05-04 18:30 38.52965 -29.35656 21117 ft 381 kts 172°
2026-05-04 18:31 38.50366 -29.35155 20372 ft 375 kts 172°
2026-05-04 18:31 38.47797 -29.34673 19648 ft 370 kts 172°
2026-05-04 18:31 38.45263 -29.34214 18936 ft 366 kts 172°
2026-05-04 18:31 38.42757 -29.33776 18179 ft 361 kts 172°
2026-05-04 18:32 38.40284 -29.33350 17377 ft 357 kts 172°
2026-05-04 18:32 38.37839 -29.32941 16610 ft 352 kts 171°
2026-05-04 18:32 38.35523 -29.32077 15854 ft 345 kts 150°
2026-05-04 18:32 38.33683 -29.30214 15231 ft 335 kts 127°
2026-05-04 18:33 38.32594 -29.27641 14752 ft 330 kts 104°
2026-05-04 18:33 38.32395 -29.24776 14273 ft 325 kts 82°
2026-05-04 18:33 38.32792 -29.21956 13762 ft 323 kts 77°
2026-05-04 18:33 38.33252 -29.19163 13238 ft 322 kts 77°
2026-05-04 18:34 38.33716 -29.16381 12722 ft 320 kts 77°
2026-05-04 18:34 38.34186 -29.13612 12234 ft 319 kts 77°
2026-05-04 18:34 38.34646 -29.10906 12027 ft 308 kts 77°
2026-05-04 18:34 38.35097 -29.08255 11566 ft 305 kts 77°
2026-05-04 18:35 38.35546 -29.05635 11101 ft 301 kts 77°
2026-05-04 18:35 38.35992 -29.03036 10642 ft 298 kts 77°
2026-05-04 18:35 38.36436 -29.00470 10194 ft 295 kts 77°
2026-05-04 18:35 38.36878 -28.97927 9682 ft 293 kts 77°
2026-05-04 18:36 38.37294 -28.95397 9187 ft 290 kts 78°
2026-05-04 18:36 38.37678 -28.92924 8927 ft 279 kts 79°
2026-05-04 18:36 38.37804 -28.90491 8575 ft 275 kts 98°
2026-05-04 18:36 38.37079 -28.88259 8309 ft 277 kts 125°
2026-05-04 18:37 38.35602 -28.86690 8059 ft 281 kts 153°
2026-05-04 18:37 38.33698 -28.86152 7812 ft 285 kts 180°
2026-05-04 18:37 38.31785 -28.86780 7564 ft 287 kts 208°
2026-05-04 18:37 38.30296 -28.88441 7319 ft 287 kts 236°
2026-05-04 18:38 38.29560 -28.90769 7074 ft 285 kts 264°
2026-05-04 18:38 38.29735 -28.93242 6834 ft 281 kts 291°
2026-05-04 18:38 38.30764 -28.95297 6575 ft 275 kts 320°
2026-05-04 18:38 38.32393 -28.96471 6322 ft 269 kts 348°
2026-05-04 18:39 38.34229 -28.96509 6070 ft 264 kts 17°
2026-05-04 18:39 38.35838 -28.95462 5819 ft 260 kts 39°
2026-05-04 18:39 38.37229 -28.94015 5564 ft 256 kts 41°
2026-05-04 18:39 38.38565 -28.92548 5312 ft 252 kts 42°
2026-05-04 18:40 38.39877 -28.91094 5055 ft 248 kts 42°
2026-05-04 18:40 38.41167 -28.89658 4797 ft 245 kts 42°
2026-05-04 18:40 38.42440 -28.88236 4536 ft 241 kts 42°
2026-05-04 18:40 38.43693 -28.86845 4280 ft 237 kts 42°
2026-05-04 18:41 38.44927 -28.85478 4026 ft 233 kts 42°
2026-05-04 18:41 38.46139 -28.84137 3776 ft 229 kts 43°
2026-05-04 18:41 38.47308 -28.82789 3516 ft 224 kts 49°
2026-05-04 18:41 38.48320 -28.81309 3254 ft 220 kts 52°
2026-05-04 18:42 38.49287 -28.79833 3062 ft 213 kts 52°
2026-05-04 18:42 38.50209 -28.78413 2996 ft 204 kts 52°
2026-05-04 18:42 38.51110 -28.77024 3014 ft 202 kts 52°
2026-05-04 18:42 38.52006 -28.75640 3009 ft 202 kts 53°
2026-05-04 18:43 38.52661 -28.74115 3007 ft 189 kts 71°
2026-05-04 18:43 38.52898 -28.72519 3017 ft 181 kts 84°
2026-05-04 18:43 38.53018 -28.70967 3041 ft 167 kts 84°
2026-05-04 18:43 38.53135 -28.69566 3006 ft 150 kts 83°
2026-05-04 18:44 38.53241 -28.68292 3004 ft 138 kts 83°
2026-05-04 18:44 38.53307 -28.67491 3017 ft 130 kts 83°
2026-05-04 18:44 38.53431 -28.65987 2932 ft 128 kts 83°
2026-05-04 18:44 38.53521 -28.64869 2764 ft 126 kts 82°
2026-05-04 18:45 38.53609 -28.63770 2605 ft 124 kts 82°
2026-05-04 18:45 38.53697 -28.62681 2462 ft 123 kts 83°
2026-05-04 18:45 38.53786 -28.61592 2317 ft 124 kts 82°
2026-05-04 18:45 38.53876 -28.60502 2187 ft 124 kts 82°
2026-05-04 18:46 38.53964 -28.59409 2059 ft 123 kts 82°
2026-05-04 18:46 38.54053 -28.58323 1926 ft 123 kts 82°
2026-05-04 18:46 38.54142 -28.57241 1798 ft 123 kts 83°
2026-05-04 18:46 38.54229 -28.56160 1677 ft 122 kts 82°
2026-05-04 18:47 38.54320 -28.55091 1554 ft 121 kts 81°
2026-05-04 18:47 38.54429 -28.54017 1431 ft 123 kts 82°
2026-05-04 18:47 38.54544 -28.52912 1318 ft 124 kts 80°
2026-05-04 18:47 38.54654 -28.51844 1257 ft 121 kts 80°
2026-05-04 18:48 38.54763 -28.50775 1100 ft 120 kts 81°
2026-05-04 18:48 38.54859 -28.49725 944 ft 119 kts 80°
2026-05-04 18:48 38.54959 -28.48663 764 ft 122 kts 80°
2026-05-04 18:48 38.55079 -28.47582 569 ft 125 kts 81°
2026-05-04 18:49 38.55188 -28.46477 392 ft 125 kts 79°
2026-05-04 18:49 38.55302 -28.45396 215 ft 120 kts 79°
2026-05-04 18:49 38.55405 -28.44447 138 ft 76 kts 82°
2026-05-04 18:49 38.55432 -28.44163 141 ft 10 kts 93°
2026-05-04 18:50 38.55405 -28.44135 141 ft 6 kts 165°
2026-05-04 18:50 38.55357 -28.44121 142 ft 8 kts 170°
2026-05-04 18:50 38.55304 -28.44087 142 ft 8 kts 161°
2026-05-04 18:50 38.55273 -28.44086 142 ft 3 kts 225°
2026-05-04 18:51 38.55279 -28.44108 138 ft 0 kts 302°